Header for Extended Forecast Station List Page

Search by: ID | Name | Date | Parm | Value | Avg | % Avg
Sort by: ID | Name | Date | Parm | Value | Avg | % Avg

Enter search or view all records.

Click on id for station plot
#IDNameDateParmValueAvg% Avg
0TONW1OKANOGAN-NEAR TONASKET04-22-2019DISCHARGE (KAF)777138756
1SATI1ST MARIES-NEAR SANTA04-22-2019DISCHARGE (KAF)609563
2PRTI1PRIEST-NEAR PRIEST RIVER04-22-2019DISCHARGE (KAF)43768764
3PATW1METHOW-NEAR PATEROS04-22-2019DISCHARGE (KAF)51480264
4GCDW1COLUMBIA-GRAND COULEE DAM04-22-2019INFLOW (KAF)275504165566
5KADW1KACHESS-KACHESS DAM04-22-2019INFLOW (KAF)588766
6CHDW1CHELAN-LAKE CHELAN DAM04-22-2019INFLOW (KAF)64296267
7ARDW1ENTIAT-NEAR ARDENVOIR04-22-2019DISCHARGE (KAF)12719167
8PRWW1COLUMBIA-PRIEST RAPIDS DAM04-22-2019INFLOW (KAF)281824220267
9WANW1COLUMBIA-WANAPUM DAM04-22-2019INFLOW (KAF)281824134468
10FCFM8NF FLATHEAD-NEAR COLUMBIA FALLS04-22-2019DISCHARGE (KAF)1073154869
11LYDM8KOOTENAI-LIBBY DAM04-22-2019INFLOW (KAF)4009576170
12KEDW1YAKIMA-KEECHELUS LAKE04-22-2019INFLOW (KAF)679571
13CLUW1CLE ELUM-CLE ELUM LAKE04-22-2019INFLOW (KAF)24634571
14LAUW1KETTLE-AT LAURIER04-22-2019DISCHARGE (KAF)1141159372
15LLKW1SPOKANE-AT LONGLAKE04-22-2019INFLOW (KAF)1780245373
16UNDW1WHITE SALMON-NEAR UNDERWOOD04-22-2019DISCHARGE (KAF)20227673
17LEOI1KOOTENAI-AT LEONIA04-22-2019DISCHARGE (KAF)3834521674
18PESW1WENATCHEE-AT PESHASTIN04-22-2019DISCHARGE (KAF)987133274
19TNAW1TEANAWAY-BELOW FORKS04-22-2019DISCHARGE (KAF)628474
20BUDW1BUMPING-BUMPING LAKE DAM04-22-2019INFLOW (KAF)7810574
21COEI1COEUR D ALENE-COEUR D ALENE LAKE04-22-2019INFLOW (KAF)1496196876
22MCDW1COLUMBIA-MCNARY DAM04-22-2019INFLOW (KAF)474566153777
23JDAO3COLUMBIA-JOHN DAY DAM04-22-2019INFLOW (KAF)495236315178
24WELW1COLUMBIA-WELLS DAM04-22-2019INFLOW (KAF)267733392179
25RRHW1COLUMBIA-ROCKY REACH DAM04-22-2019INFLOW (KAF)271523448579
26CHJW1COLUMBIA-CHIEF JOSEPH DAM04-22-2019INFLOW (KAF)254733134881
27CLFW1NACHES-NEAR CLIFFDEL04-22-2019DISCHARGE (KAF)26032081
28STRM8ST. REGIS-NEAR ST. REGIS04-22-2019DISCHARGE (KAF)18021683
29RILW1TIETON-RIMROCK LAKE NEAR RIMROCK04-22-2019INFLOW (KAF)14918083
30HODO3HOOD-NEAR TUCKER BRIDGE04-22-2019DISCHARGE (KAF)14717783
31KERM8FLATHEAD-KERR DAM04-22-2019INFLOW (KAF)4135491284
32PITW1KLICKITAT-NEAR PITT04-22-2019DISCHARGE (KAF)33840484
33ALFW1PEND OREILLE-ALBENI FALLS DAM04-22-2019INFLOW (KAF)87211015586
34DWRI1NF CLEARWATER-DWORSHAK DAM04-22-2019INFLOW (KAF)1941224986
35HHWM8SF FLATHEAD-HUNGRY HORSE DAM04-22-2019INFLOW (KAF)1562179987
36NOXM8CLARK FORK-NOXON RAPIDS DAM04-22-2019INFLOW (KAF)7252832187
37KIOW1YAKIMA-AT KIONA04-22-2019DISCHARGE (KAF)62271487
38BONO3COLUMBIA-BONNEVILLE DAM04-22-2019INFLOW (KAF)505225832487
39PARW1YAKIMA-NEAR PARKER04-22-2019DISCHARGE (KAF)32937288
40TDAO3COLUMBIA-THE DALLES DAM04-22-2019INFLOW (KAF)498015673188
41WGCM8MF FLATHEAD-NEAR WEST GLACIER04-22-2019DISCHARGE (KAF)1356150090
42CFMM8FLATHEAD-AT COLUMBIA FALLS04-22-2019DISCHARGE (KAF)3569394690
43CABI1CLARK FORK-CABINET GORGE DAM04-22-2019INFLOW (KAF)7990881091
44SPDI1CLEARWATER-AT SPALDING04-22-2019DISCHARGE (KAF)5476595792
45BONM8BLACKFOOT-NEAR BONNER04-22-2019DISCHARGE (KAF)72176095
46UMTW1YAKIMA-AT UMTANUM04-22-2019DISCHARGE (KAF)77280096
47NACW1NACHES-NEAR NACHES04-22-2019DISCHARGE (KAF)43745197
48WHBI1SALMON-AT WHITEBIRD04-22-2019DISCHARGE (KAF)5243542997
49SRGM8CLARK FORK-AT ST REGIS04-22-2019DISCHARGE (KAF)3304334899
50ORFI1CLEARWATER-AT OROFINO04-22-2019DISCHARGE (KAF)39994011100
51BITM8BITTERROOT-NEAR MISSOULA04-22-2019DISCHARGE (KAF)11531142101
52MODO3DESCHUTES-AT MOODY NR BIGGS04-22-2019DISCHARGE (KAF)12581250101
53LGDW1SNAKE-LOWER GRANITE DAM04-22-2019INFLOW (KAF)1825217761103
54LGSW1SNAKE-LITTLE GOOSE DAM04-22-2019INFLOW (KAF)1825217778103
55LMNW1SNAKE-LOWER MONUMENTAL DAM04-22-2019INFLOW (KAF)1839017817103
56BELM8CLARK FORK-BELOW MISSOULA04-22-2019DISCHARGE (KAF)26282519104
57IHDW1SNAKE-ICE HARBOR DAM04-22-2019INFLOW (KAF)1839017716104
58JLKW4SNAKE-JACKSON LAKE AT DAM04-22-2019INFLOW (KAF)813755108
59ANAW1SNAKE-NEAR ANATONE04-22-2019DISCHARGE (KAF)1277711745109
60ABOM8CLARK FORK-ABOVE MISSOULA04-22-2019DISCHARGE (KAF)14731336110
61HEII1SNAKE-NEAR HEISE04-22-2019DISCHARGE (KAF)34023094110
62DEDI1DEADWOOD-NEAR LOWMAN04-22-2019INFLOW (KAF)138125110
63TEAI1TETON-NEAR ST. ANTHONY04-22-2019DISCHARGE (KAF)378340111
64PLDI1SF SNAKE-PALISADES DAM04-22-2019INFLOW (KAF)32882968111
65ALPW4SNAKE-NEAR ALPINE04-22-2019DISCHARGE (KAF)23732094113
66EASW1YAKIMA-AT EASTON04-22-2019DISCHARGE (KAF)10290114
67MACI1BIG LOST-MACKAY RESERVOIR NEAR MACKAY04-22-2019INFLOW (KAF)181159114
68ARAI1SF BOISE-ANDERSON RANCH DAM04-22-2019INFLOW (KAF)520447116
69TRYO3GRANDE RONDE-TROY04-22-2019DISCHARGE (KAF)1162993117
70HALI1BIG WOOD-AT HAILEY04-22-2019DISCHARGE (KAF)263220119
71JKSW4SNAKE-NEAR JACKSON04-22-2019DISCHARGE (KAF)19721632121
72SIFI1SNAKE-AB EAGLE ROCK NR IDAHO FALLS04-22-2019DISCHARGE (KAF)29532441121
73IPDI1HENRYS FORK-ISLAND PARK DAM04-22-2019INFLOW (KAF)257207124
74MAGI1BIG WOOD-MAGIC DAM04-22-2019INFLOW (KAF)237191124
75OWYO3OWYHEE-OWYHEE DAM04-22-2019INFLOW (KAF)238193124
76SHYI1SNAKE-NEAR SHELLEY04-22-2019DISCHARGE (KAF)27932214126
77AFRI1SNAKE-AMERICAN FALLS RESERVOIR04-22-2019INFLOW (KAF)27772204126
78RCCM8ROCK CREEK-NEAR CLINTON04-22-2019DISCHARGE (KAF)321251128
79CSDI1NF PAYETTE-CASCADE DAM04-22-2019INFLOW (KAF)549425129
80WSRI1WEISER-NEAR WEISER04-22-2019DISCHARGE (KAF)358278129
81SNAI1SNAKE-AT BLACKFOOT04-22-2019DISCHARGE (KAF)22121708130
82EMMI1PAYETTE-NEAR EMMETT04-22-2019DISCHARGE (KAF)14031076130
83DLGM8CLARK FORK-AT DEER LODGE04-22-2019DISCHARGE (KAF)9170131
84HWRI1BIG LOST-AT HOWELL RANCH NEAR CHILLY04-22-2019DISCHARGE (KAF)208159131
85HOTI1BRUNEAU-NEAR HOT SPRINGS04-22-2019DISCHARGE (KAF)203154132
86REXI1HENRYS FORK-AT REXBURG04-22-2019DISCHARGE (KAF)906679133
87CHEI1FALL RIVER-NEAR CHESTER04-22-2019DISCHARGE (KAF)403298135
88SWAI1SNAKE-BELOW SWAN FALLS04-22-2019DISCHARGE (KAF)29222156135
89ANTI1HENRYS FORK-AT ST. ANTHONY04-22-2019DISCHARGE (KAF)813593137
90VALO3MALHEUR-NEAR VALE04-22-2019DISCHARGE (KAF)5036137
91BFTI1SNAKE-NEAR BLACKFOOT04-22-2019DISCHARGE (KAF)21891591138
92WEII1SNAKE-AT WEISER04-22-2019DISCHARGE (KAF)57724196138
93MONO3NF JOHN DAY-AT MONUMENT04-22-2019DISCHARGE (KAF)558405138
94PIHI1PORTNEUF-AT POCATELLO04-22-2019DISCHARGE (KAF)8360139
95BRNI1SNAKE-BROWNLEE DAM04-22-2019INFLOW (KAF)62514502139
96LWRI1LITTLE WOOD-LITTLE WOOD DAM04-22-2019INFLOW (KAF)9366143
97SERO3JOHN DAY-AT SERVICE CK04-22-2019DISCHARGE (KAF)849564150
98BERO3MALHEUR-AGENCY VALLEY DAM04-22-2019INFLOW (KAF)4328157
99GIBO3UMATILLA-NEAR GIBBON04-22-2019DISCHARGE (KAF)7548158
100BIGI1BOISE-AT GLENWOOD BRIDGE04-22-2019DISCHARGE (KAF)739433171
101PDTO3UMATILLA-AT PENDLETON04-22-2019DISCHARGE (KAF)14584173
102TCHW1WALLA WALLA-NEAR TOUCHET04-22-2019DISCHARGE (KAF)12669183
103PARI1BOISE-NEAR PARMA04-22-2019DISCHARGE (KAF)710384185
104RIDI1WILLOW CREEK-RIRIE DAM04-22-2019INFLOW (KAF)6734198
105MYKO3MCKAY CREEK-NEAR PILOT ROCK04-22-2019DISCHARGE (KAF)2810273
106MILI1SNAKE-AT MILNER04-22-2019DISCHARGE (KAF)1024252406
107WRMO3MALHEUR-WARM SPRINGS DAM04-22-2019INFLOW (KAF)8318455
108UMAO3UMATILLA-NEAR UMATILLA04-22-2019DISCHARGE (KAF)24739634
109BULO3BULLY CREEK-BULLY CREEK DAM04-22-2019INFLOW (KAF)1011065
110BFEI1KOOTENAI-AT BONNERS FERRY04-22-2019STAGE (FT)MMM
111DRMM8CLARK FORK-NR DRUMMOND04-22-2019DISCHARGE (KAF)366MM
112HOPI1PEND OREILLE-PEND OREILLE LAKE NR HOPE04-22-2019LAKE ELEVATION (FT)MMM
113SPOW1SPOKANE-AT SPOKANE04-22-2019DISCHARGE (KAF)1556MM
114SJMI1ST JOE-AT ST MARIES04-22-2019STAGE (FT)MMM
115CIBW1COLUMBIA-AT INTL BOUNDARY04-22-2019DISCHARGE (KAF)24578MM
116LUCI1BOISE-LUCKY PEAK DAM04-22-2019INFLOW (KAF)1502MM